Change the Weather History Date:

Wednesday, December 4, 2013

  Actual Average Record
Temperature  
Mean Temperature 66 °F -  
Max Temperature 74 °F 50 °F 77 °F (1998)
Min Temperature 57 °F 33 °F 14 °F (2006)
Growing Degree Days 16 (Base 50)    
Moisture  
Dew Point 60 °F    
Average Humidity 86    
Maximum Humidity 100    
Minimum Humidity 52    
Precipitation  
Precipitation 0.00 in - - ()
Sea Level Pressure  
Sea Level Pressure 29.76 in    
Wind  
Wind Speed 10 mph (South)    
Max Wind Speed 21 mph    
Max Gust Speed 30 mph    
Visibility 10 miles    
Events      
Averages and records for this station are not official NWS values.
T = Trace of Precipitation, MM = Missing Value Source: NWS Daily Summary

Daily Weather History Graph

Daily Weather History Graph

Search for Another Location

Airport or City:

Trip Planner

Search our weather history database for the weather conditions in past years. The results will help you decide how hot, cold, wet, or windy it might be!

Date:

Astronomy

Dec. 04, 2013 Rise Set
Actual Time 6:46 AM CST 4:33 PM CST
Civil Twilight 6:18 AM CST 5:02 PM CST
Nautical Twilight 5:46 AM CST 5:34 PM CST
Astronomical Twilight 5:14 AM CST 6:05 PM CST
Moon 8:15 AM CST (12/4) 6:42 PM CST (12/4)
Length of Visible Light 10h 44m
Length of Day
9h 47m
Waxing Crescent, 4% of the Moon is Illuminated
Dec 4
Waxing Crescent
Dec 9
First Quarter
Dec 17
Full
Dec 25
Last Quarter
Jan 1
New

Hourly Weather History & Observations

Time (CST) Temp. Dew Point Humidity Pressure Visibility Wind Dir Wind Speed Gust Speed Precip Events Conditions
12:48 AM 57.2 °F 57.2 °F 100% 29.74 in 10.0 mi SSE 6.9 mph - N/A   Overcast
12:58 AM 57.9 °F 57.9 °F 100% 29.74 in 10.0 mi SSE 8.1 mph - N/A   Overcast
1:58 AM 58.3 °F 58.3 °F 100% 29.76 in 9.0 mi SSE 5.8 mph - N/A   Overcast
2:11 AM 59.0 °F 59.0 °F 100% 29.77 in 9.0 mi SSE 5.8 mph - N/A   Overcast
2:58 AM 58.5 °F 58.5 °F 100% 29.75 in 9.0 mi SE 6.9 mph - N/A   Overcast
3:05 AM 59.0 °F 59.0 °F 100% 29.75 in 9.0 mi SE 6.9 mph - N/A   Overcast
3:41 AM 59.0 °F 59.0 °F 100% 29.74 in 10.0 mi SE 6.9 mph - N/A   Overcast
3:58 AM 59.0 °F 59.0 °F 100% 29.74 in 10.0 mi SE 8.1 mph - N/A   Overcast
4:29 AM 59.0 °F 59.0 °F 100% 29.74 in 10.0 mi SE 6.9 mph - N/A   Overcast
4:58 AM 59.9 °F 59.9 °F 100% 29.75 in 10.0 mi SSE 6.9 mph - N/A   Overcast
5:44 AM 60.8 °F 60.8 °F 100% 29.76 in 10.0 mi SSE 6.9 mph - N/A   Light Drizzle
5:54 AM 60.8 °F 60.8 °F 100% 29.76 in 10.0 mi SSE 8.1 mph - N/A   Overcast
5:58 AM 60.3 °F 60.3 °F 100% 29.76 in 10.0 mi SSE 6.9 mph - 0.00 in   Overcast
6:04 AM 60.8 °F 60.8 °F 100% 29.75 in 10.0 mi SE 6.9 mph - N/A   Overcast
6:11 AM 60.8 °F 60.8 °F 100% 29.76 in 10.0 mi SE 8.1 mph - N/A   Overcast
6:19 AM 60.8 °F 60.8 °F 100% 29.75 in 10.0 mi SE 8.1 mph - N/A   Overcast
6:31 AM 60.8 °F 60.8 °F 100% 29.76 in 10.0 mi SSE 6.9 mph - N/A   Overcast
6:58 AM 61.3 °F 61.3 °F 100% 29.77 in 10.0 mi SSE 8.1 mph - N/A   Overcast
7:46 AM 62.6 °F 62.6 °F 100% 29.78 in 10.0 mi SSE 10.4 mph - N/A   Overcast
7:53 AM 62.6 °F 62.6 °F 100% 29.78 in 10.0 mi SSE 10.4 mph - N/A   Mostly Cloudy
7:54 AM 62.6 °F 62.6 °F 100% 29.78 in 10.0 mi SSE 10.4 mph - N/A   Mostly Cloudy
7:57 AM 62.6 °F 62.6 °F 100% 29.78 in 10.0 mi South 8.1 mph - N/A   Mostly Cloudy
7:58 AM 62.6 °F 62.6 °F 100% 29.78 in 10.0 mi South 9.2 mph - N/A   Mostly Cloudy
8:21 AM 62.6 °F 62.6 °F 100% 29.78 in 10.0 mi South 9.2 mph - N/A   Mostly Cloudy
8:58 AM 66.2 °F 64.9 °F 96% 29.78 in 10.0 mi South 9.2 mph - N/A   Partly Cloudy
9:27 AM 68.0 °F 62.6 °F 83% 29.78 in 10.0 mi SSW 15.0 mph 19.6 mph N/A   Mostly Cloudy
9:38 AM 68.0 °F 62.6 °F 83% 29.79 in 10.0 mi SSW 16.1 mph 21.9 mph N/A   Overcast
9:39 AM 68.0 °F 62.6 °F 83% 29.78 in 10.0 mi South 15.0 mph 21.9 mph N/A   Overcast
9:44 AM 68.0 °F 62.6 °F 83% 29.79 in 10.0 mi SSW 17.3 mph - N/A   Overcast
9:47 AM 68.0 °F 62.6 °F 83% 29.79 in 10.0 mi SSW 13.8 mph - N/A   Overcast
9:58 AM 68.0 °F 61.5 °F 80% 29.78 in 10.0 mi South 15.0 mph 21.9 mph N/A   Overcast
10:00 AM 68.0 °F 60.8 °F 78% 29.78 in 10.0 mi South 17.3 mph 26.5 mph N/A   Overcast
10:01 AM 68.0 °F 60.8 °F 78% 29.78 in 10.0 mi South 19.6 mph 26.5 mph N/A   Overcast
10:08 AM 68.0 °F 60.8 °F 78% 29.78 in 10.0 mi South 15.0 mph 26.5 mph N/A   Overcast
10:51 AM 69.8 °F 60.8 °F 73% 29.76 in 10.0 mi South 13.8 mph 23.0 mph N/A   Mostly Cloudy
10:57 AM 69.8 °F 60.8 °F 73% 29.76 in 10.0 mi South 16.1 mph - N/A   Mostly Cloudy
10:58 AM 69.8 °F 60.8 °F 73% 29.76 in 10.0 mi South 16.1 mph - N/A   Mostly Cloudy
11:39 AM 71.6 °F 59.0 °F 64% 29.75 in 10.0 mi SSW 17.3 mph 23.0 mph N/A   Mostly Cloudy
11:58 AM 73.6 °F 58.5 °F 59% 29.74 in 10.0 mi South 20.7 mph 29.9 mph N/A   Mostly Cloudy
12:58 PM 73.9 °F 57.9 °F 57% 29.72 in 10.0 mi SSW 18.4 mph 28.8 mph N/A   Scattered Clouds
1:58 PM 74.5 °F 56.1 °F 53% 29.71 in 10.0 mi South 15.0 mph 26.5 mph N/A   Clear
2:58 PM 74.5 °F 55.6 °F 52% 29.70 in 10.0 mi South 17.3 mph 23.0 mph N/A   Clear
3:58 PM 73.0 °F 55.6 °F 54% 29.72 in 10.0 mi South 13.8 mph 24.2 mph N/A   Clear
4:58 PM 70.7 °F 56.3 °F 60% 29.75 in 10.0 mi South 10.4 mph - N/A   Partly Cloudy
5:58 PM 70.3 °F 57.7 °F 64% 29.74 in 10.0 mi South 15.0 mph - N/A   Mostly Cloudy
6:58 PM 69.8 °F 59.4 °F 69% 29.75 in 10.0 mi South 13.8 mph 19.6 mph N/A   Clear
7:58 PM 69.4 °F 60.8 °F 74% 29.78 in 10.0 mi South 13.8 mph 18.4 mph N/A   Scattered Clouds
8:58 PM 69.3 °F 62.2 °F 78% 29.80 in 10.0 mi South 13.8 mph 20.7 mph N/A   Mostly Cloudy
9:58 PM 68.5 °F 63.5 °F 84% 29.82 in 10.0 mi SSW 11.5 mph - N/A   Partly Cloudy
10:58 PM 67.8 °F 64.6 °F 89% 29.84 in 10.0 mi SSW 10.4 mph - N/A   Mostly Cloudy
11:58 PM 68.2 °F 64.8 °F 89% 29.83 in 10.0 mi South 10.4 mph - N/A   Scattered Clouds